Precipitable_Water
0.74 0.70 0.72 0.70 0.71 0.73 0.72 0.71 0.73 0.76 0.83 0.86 0.84 0.78 0.79 0.81 0.84 0.83 0.77 0.79 0.78 0.81 0.85 0.85 0.85 0.85 0.74 0.78 0.76 0.77 0.76 0.68 0.59 0.71 0.82 0.89 0.90 0.90 0.91 0.91 0.92 0.89 0.88
0.67 0.72 0.71 0.72 0.72 0.71 0.71 0.70 0.73 0.73 0.81 0.82 0.81 0.78 0.75 0.75 0.80 0.77 0.77 0.77 0.78 0.78 0.82 0.83 0.77 0.72 0.73 0.76 0.71 0.71 0.78 0.78 0.74 0.74 0.82 0.86 0.89 0.91 0.88 0.88 0.87 0.83 0.83
0.70 0.71 0.70 0.69 0.70 0.71 0.73 0.71 0.74 0.73 0.73 0.76 0.76 0.72 0.72 0.76 0.74 0.74 0.73 0.74 0.75 0.73 0.73 0.74 0.76 0.78 0.71 0.70 0.81 0.84 0.87 0.86 0.86 0.82 0.81 0.88 0.88 0.91 0.83 0.88 0.88 0.86 0.87
0.71 0.69 0.67 0.69 0.72 0.72 0.70 0.70 0.71 0.75 0.71 0.72 0.71 0.72 0.73 0.74 0.71 0.73 0.73 0.70 0.70 0.70 0.70 0.71 0.76 0.68 0.66 0.69 0.77 0.81 0.87 0.87 0.86 0.83 0.83 0.84 0.83 0.84 0.81 0.79 0.78 0.82 0.77
0.69 0.72 0.70 0.68 0.73 0.72 0.74 0.76 0.74 0.74 0.73 0.73 0.70 0.70 0.74 0.68 0.66 0.69 0.76 0.71 0.69 0.69 0.72 0.74 0.72 0.73 0.76 0.81 0.85 0.90 0.89 0.86 0.85 0.82 0.75 0.67 0.62 0.64 0.62 0.66 0.67 0.69 0.68
0.74 0.74 0.78 0.77 0.75 0.74 0.73 0.75 0.73 0.75 0.73 0.73 0.71 0.72 0.71 0.65 0.63 0.64 0.68 0.68 0.66 0.65 0.69 0.78 0.86 0.91 0.92 0.91 0.90 0.90 0.88 0.81 0.76 0.74 0.71 0.66 0.67 0.70 0.72 0.72 0.73 0.71 0.63
0.74 0.76 0.78 0.79 0.78 0.78 0.79 0.79 0.79 0.79 0.80 0.78 0.78 0.78 0.76 0.76 0.77 0.78 0.80 0.81 0.79 0.83 0.88 0.89 0.87 0.90 0.91 0.88 0.84 0.79 0.70 0.63 0.61 0.68 0.63 0.59 0.59 0.61 0.70 0.72 0.71 0.72 0.66
0.76 0.78 0.80 0.82 0.79 0.82 0.81 0.82 0.84 0.87 0.88 0.86 0.87 0.87 0.87 0.89 0.90 0.91 0.92 0.91 0.89 0.88 0.85 0.80 0.86 0.84 0.80 0.74 0.73 0.68 0.64 0.62 0.64 0.65 0.66 0.64 0.62 0.62 0.64 0.71 0.74 0.77 0.76
0.78 0.80 0.85 0.83 0.85 0.87 0.83 0.84 0.89 0.91 0.88 0.83 0.80 0.83 0.86 0.84 0.89 0.91 0.91 0.88 0.82 0.78 0.74 0.72 0.74 0.62 0.66 0.73 0.77 0.73 0.71 0.69 0.66 0.63 0.63 0.59 0.57 0.56 0.58 0.62 0.65 0.65 0.58
0.80 0.84 0.86 0.90 0.88 0.84 0.84 0.83 0.83 0.77 0.71 0.76 0.83 0.87 0.83 0.81 0.83 0.86 0.84 0.78 0.72 0.71 0.68 0.60 0.55 0.58 0.62 0.69 0.76 0.74 0.62 0.61 0.76 0.82 0.85 0.87 0.83 0.81 0.82 0.70 0.77 0.67 0.63
0.85 0.86 0.84 0.90 0.90 0.91 0.87 0.86 0.82 0.82 0.84 0.85 0.87 0.84 0.79 0.80 0.74 0.76 0.80 0.80 0.73 0.64 0.57 0.57 0.58 0.58 0.60 0.62 0.63 0.67 0.66 0.75 0.82 0.81 0.78 0.77 0.75 0.76 0.80 0.80 0.79 0.74 0.63
0.87 0.85 0.87 0.88 0.88 0.89 0.86 0.85 0.83 0.82 0.77 0.76 0.77 0.77 0.77 0.76 0.74 0.69 0.67 0.71 0.73 0.67 0.62 0.66 0.66 0.66 0.70 0.69 0.67 0.71 0.78 0.75 0.83 0.77 0.68 0.75 0.68 0.71 0.74 0.68 0.72 0.74 0.76
0.86 0.86 0.85 0.85 0.87 0.86 0.78 0.70 0.70 0.73 0.72 0.70 0.72 0.68 0.68 0.70 0.67 0.71 0.72 0.72 0.72 0.69 0.65 0.64 0.64 0.66 0.68 0.70 0.66 0.64 0.70 0.69 0.69 0.66 0.74 0.68 0.74 0.72 0.66 0.63 0.65 0.69 0.78
0.85 0.81 0.81 0.80 0.82 0.76 0.70 0.58 0.53 0.55 0.61 0.65 0.61 0.59 0.57 0.55 0.56 0.62 0.68 0.69 0.71 0.69 0.71 0.73 0.66 0.66 0.66 0.64 0.63 0.63 0.62 0.61 0.62 0.61 0.63 0.67 0.66 0.64 0.58 0.60 0.57 0.57 0.58
0.82 0.79 0.77 0.76 0.76 0.66 0.59 0.53 0.45 0.41 0.44 0.46 0.50 0.53 0.47 0.47 0.47 0.49 0.49 0.51 0.55 0.60 0.64 0.64 0.58 0.55 0.55 0.55 0.55 0.55 0.55 0.55 0.56 0.58 0.58 0.58 0.58 0.59 0.55 0.59 0.57 0.53 0.50
0.81 0.76 0.69 0.68 0.71 0.67 0.61 0.55 0.50 0.44 0.35 0.35 0.36 0.36 0.39 0.36 0.35 0.36 0.40 0.44 0.48 0.53 0.59 0.54 0.51 0.51 0.50 0.50 0.50 0.51 0.51 0.47 0.49 0.53 0.55 0.55 0.54 0.55 0.51 0.52 0.51 0.46 0.43
0.79 0.80 0.71 0.64 0.62 0.59 0.59 0.60 0.53 0.49 0.46 0.39 0.33 0.28 0.28 0.29 0.31 0.34 0.37 0.38 0.39 0.48 0.48 0.46 0.45 0.47 0.48 0.49 0.49 0.48 0.47 0.43 0.50 0.51 0.50 0.50 0.51 0.51 0.47 0.45 0.46 0.42 0.39
0.78 0.66 0.68 0.62 0.62 0.60 0.58 0.55 0.53 0.51 0.49 0.47 0.42 0.37 0.37 0.40 0.37 0.34 0.38 0.41 0.39 0.39 0.39 0.39 0.42 0.44 0.45 0.46 0.47 0.47 0.48 0.43 0.45 0.47 0.47 0.47 0.48 0.46 0.43 0.40 0.40 0.37 0.35
0.65 0.57 0.62 0.66 0.66 0.60 0.57 0.55 0.53 0.51 0.47 0.42 0.38 0.38 0.44 0.47 0.48 0.46 0.45 0.42 0.39 0.37 0.35 0.33 0.37 0.40 0.41 0.43 0.45 0.46 0.45 0.42 0.43 0.44 0.45 0.44 0.42 0.40 0.38 0.36 0.36 0.37 0.35
0.71 0.57 0.60 0.67 0.59 0.56 0.54 0.51 0.50 0.48 0.46 0.42 0.32 0.31 0.43 0.48 0.45 0.41 0.35 0.33 0.32 0.32 0.34 0.33 0.32 0.36 0.38 0.38 0.39 0.39 0.40 0.40 0.39 0.40 0.41 0.40 0.39 0.38 0.36 0.34 0.34 0.35 0.35
0.65 0.65 0.61 0.60 0.55 0.52 0.50 0.49 0.49 0.46 0.44 0.43 0.41 0.34 0.38 0.42 0.43 0.37 0.30 0.28 0.28 0.28 0.29 0.29 0.30 0.33 0.33 0.33 0.34 0.35 0.34 0.35 0.37 0.39 0.39 0.37 0.37 0.34 0.35 0.34 0.34 0.34 0.35
0.67 0.61 0.56 0.53 0.52 0.46 0.45 0.47 0.44 0.42 0.40 0.39 0.40 0.40 0.38 0.44 0.44 0.37 0.29 0.27 0.26 0.27 0.28 0.29 0.29 0.31 0.32 0.32 0.32 0.31 0.29 0.28 0.33 0.36 0.39 0.38 0.37 0.35 0.35 0.33 0.33 0.34 0.34
0.60 0.59 0.55 0.52 0.50 0.47 0.47 0.43 0.37 0.34 0.35 0.35 0.34 0.34 0.36 0.40 0.42 0.38 0.28 0.27 0.27 0.27 0.28 0.29 0.29 0.30 0.31 0.32 0.31 0.29 0.25 0.24 0.29 0.33 0.40 0.38 0.36 0.35 0.35 0.34 0.33 0.34 0.35
0.67 0.63 0.60 0.54 0.47 0.46 0.40 0.42 0.39 0.35 0.30 0.29 0.30 0.32 0.35 0.39 0.43 0.42 0.32 0.28 0.28 0.28 0.29 0.30 0.30 0.30 0.30 0.27 0.27 0.26 0.24 0.24 0.29 0.33 0.41 0.38 0.38 0.34 0.35 0.35 0.34 0.35 0.35
0.72 0.66 0.59 0.62 0.55 0.50 0.46 0.42 0.40 0.37 0.33 0.28 0.27 0.29 0.33 0.39 0.43 0.44 0.36 0.29 0.28 0.27 0.28 0.29 0.29 0.29 0.29 0.27 0.24 0.23 0.23 0.24 0.28 0.32 0.38 0.40 0.38 0.35 0.34 0.35 0.35 0.35 0.34
0.71 0.63 0.68 0.62 0.67 0.57 0.48 0.44 0.41 0.37 0.32 0.28 0.27 0.27 0.28 0.34 0.39 0.42 0.34 0.29 0.27 0.27 0.27 0.28 0.28 0.28 0.25 0.25 0.23 0.23 0.23 0.24 0.28 0.33 0.38 0.37 0.36 0.37 0.33 0.35 0.35 0.34 0.32
Wind_Speed
22 24 23 22 22 19 17 14 12 10 8 7 6 6 5 5 4 4 3 3 1 3 2 2 3 3 7 9 9 8 7 7 7 7 8 8 7 7 7 6 4 4 6
22 21 20 20 18 16 16 13 10 7 5 4 4 4 4 3 2 2 2 2 2 2 2 1 1 5 8 7 6 6 5 6 7 7 7 8 8 7 6 3 3 3 4
19 19 21 19 16 16 15 14 11 9 6 6 5 5 4 2 2 1 2 2 2 2 1 1 4 5 5 5 4 5 5 7 8 7 7 8 7 6 4 3 3 4 6
19 20 20 19 18 17 17 17 13 12 10 8 7 7 6 5 4 3 3 2 1 1 0 1 2 4 4 4 4 6 6 7 7 8 8 9 9 8 6 5 6 5 7
20 20 22 20 20 20 18 18 18 16 15 14 13 12 11 10 9 7 6 6 6 6 5 5 6 6 6 6 6 7 7 8 8 8 9 9 10 9 8 8 8 8 8
18 19 20 22 23 22 21 21 20 20 19 18 17 16 15 14 13 13 12 11 11 10 10 9 9 9 9 9 9 9 9 9 9 10 10 11 11 10 9 9 10 10 10
16 17 18 20 20 21 20 21 21 21 21 21 20 19 18 18 17 17 16 16 15 14 13 12 12 11 12 12 13 13 12 12 13 13 14 14 13 13 12 12 12 11 10
15 16 18 18 18 18 18 19 20 20 20 20 20 20 19 18 18 18 18 18 17 17 16 16 16 16 15 16 14 14 15 16 15 15 15 14 14 13 13 11 12 12 11
14 15 16 17 18 18 18 18 19 19 20 21 21 21 19 18 19 20 20 20 20 20 19 19 18 18 17 16 15 15 15 15 15 15 15 15 14 13 13 13 13 13 12
13 14 15 16 17 19 21 21 22 23 23 23 23 22 22 22 21 21 21 21 21 21 20 20 19 19 18 17 16 15 15 15 14 13 15 12 13 13 12 13 13 14 13
11 12 14 16 16 17 18 19 18 18 17 18 20 22 24 24 23 21 20 19 18 18 19 18 18 17 16 16 16 15 14 14 14 15 14 13 13 15 13 13 14 13 13
11 12 13 15 16 16 17 16 17 18 20 21 21 20 21 22 22 22 21 20 19 18 18 17 16 16 16 15 16 15 16 15 14 14 15 15 15 15 15 15 15 15 14
12 13 13 14 14 15 16 17 17 17 18 18 19 18 19 18 19 19 17 18 17 17 17 17 16 16 15 15 15 16 16 16 16 16 15 16 15 16 16 17 17 16 16
11 11 12 13 13 14 15 15 16 16 15 16 16 17 17 17 17 17 17 16 15 15 16 15 16 15 16 17 17 17 18 18 18 18 17 17 17 17 18 19 19 19 19
10 9 9 11 12 13 14 14 15 15 14 14 14 15 15 15 14 14 15 16 16 16 16 16 17 17 17 18 18 18 19 18 18 19 19 19 19 19 20 20 21 21 21
7 8 10 9 8 10 10 12 14 15 14 14 14 14 13 14 13 13 14 14 14 14 15 16 16 17 17 18 18 19 19 20 20 19 19 20 21 21 22 23 23 23 22
6 7 7 8 8 8 9 8 9 10 11 12 14 13 13 13 13 13 14 14 14 14 15 15 16 16 17 18 19 19 20 20 20 20 20 21 22 22 24 24 24 24 24
4 6 6 6 6 7 7 8 8 9 9 9 10 11 12 13 13 12 12 12 13 14 14 15 16 16 17 18 19 20 20 21 21 21 21 22 23 24 25 26 26 25 24
4 4 5 5 5 6 6 7 7 7 8 8 9 9 9 9 10 10 11 12 12 12 13 14 15 16 17 18 19 20 20 21 21 22 22 23 24 25 26 27 27 26 24
3 4 3 3 4 5 5 5 5 6 6 7 8 8 8 8 9 9 9 10 11 11 12 13 14 15 17 18 19 20 20 21 22 22 23 23 24 25 27 27 27 26 24
2 2 2 2 3 3 3 4 4 4 5 5 6 7 6 6 7 7 8 8 9 10 11 12 14 15 16 18 19 20 21 22 22 23 23 24 25 26 27 27 27 26 25
3 2 2 2 2 2 2 2 3 3 3 3 4 3 4 4 5 6 6 7 8 9 11 12 13 15 16 18 19 21 22 22 23 24 24 25 25 26 27 27 27 26 25
4 3 3 3 3 2 2 1 2 2 2 2 1 2 3 4 4 5 5 6 8 9 10 12 14 15 17 18 20 21 22 23 23 24 24 25 26 27 27 27 27 26 25
5 5 5 4 3 3 2 2 2 2 1 1 1 1 2 3 4 5 6 7 8 9 11 12 14 16 17 19 20 21 23 24 24 24 25 25 25 27 27 27 27 26 25
7 7 8 6 6 5 5 4 4 4 3 3 3 3 4 4 5 6 7 8 9 10 11 13 14 16 17 19 21 22 23 24 24 25 25 25 25 27 27 27 26 25 25
10 10 9 10 8 7 7 7 6 6 6 5 5 5 6 6 7 8 8 9 10 11 12 13 15 16 18 19 21 22 24 24 24 25 26 25 25 26 27 26 26 24 25
Wind_Direction
335 334 334 334 335 336 339 333 325 316 311 308 312 313 310 294 304 331 350 22 154 185 198 244 243 268 305 314 315 320 324 328 325 326 330 330 330 329 324 308 287 276 280
343 348 350 349 348 354 356 356 359 358 359 355 350 346 341 335 321 341 3 32 96 150 153 109 296 310 318 326 331 343 351 354 345 332 336 335 329 331 332 336 328 306 301
359 3 2 5 11 13 14 20 28 34 33 26 19 12 15 36 47 48 38 61 125 148 174 292 320 333 344 356 14 17 6 356 358 356 349 349 349 352 7 10 350 330 331
19 18 20 24 28 30 34 37 41 45 47 41 41 51 56 61 70 70 65 71 106 142 184 334 8 6 24 26 21 13 12 11 26 22 19 22 30 41 42 25 14 2 352
26 29 32 36 39 41 43 46 50 54 56 60 63 68 69 71 69 74 72 79 90 98 93 75 69 61 56 49 45 35 37 36 31 31 30 38 40 41 39 37 26 20 15
34 36 37 42 46 48 51 53 58 60 62 65 66 68 70 74 72 76 80 85 87 90 88 80 71 68 68 66 55 50 49 50 40 43 41 42 40 39 36 31 26 24 22
32 35 38 42 46 48 52 56 60 61 64 66 68 71 73 75 75 78 80 84 86 86 82 79 75 74 72 72 67 64 61 59 59 55 50 49 48 49 44 39 33 28 23
34 36 39 45 44 48 54 58 60 61 63 66 67 69 73 74 76 78 80 84 84 83 81 78 76 77 80 74 67 65 66 63 60 57 53 50 48 43 38 33 23 20 19
38 43 44 48 51 51 59 61 62 63 67 69 68 68 71 76 81 80 81 84 84 81 81 79 78 78 76 68 63 67 62 58 57 54 48 44 40 36 32 28 23 21 19
45 48 50 53 58 61 64 68 72 71 73 71 67 69 73 77 85 82 85 85 83 82 81 78 75 74 70 64 60 57 55 51 43 34 28 24 22 21 17 17 18 14 6
51 56 61 63 66 64 66 69 68 67 66 68 70 73 77 78 80 82 81 84 78 77 78 74 71 67 62 57 55 50 41 32 29 32 27 21 21 19 12 10 5 1 358
63 70 72 69 67 66 65 67 69 70 73 74 77 79 78 79 78 78 78 79 75 73 73 70 65 61 57 52 46 40 36 32 29 25 28 22 18 14 10 6 360 355 352
78 78 74 71 69 67 67 68 71 73 75 74 74 79 78 77 76 73 74 73 70 71 70 66 60 53 48 45 38 35 32 32 29 27 23 19 16 10 9 6 2 356 345
84 79 72 71 71 71 72 71 69 71 71 73 74 73 75 76 73 70 69 68 69 70 64 58 54 51 46 44 41 39 35 30 26 24 20 17 14 11 8 6 3 0 356
82 73 78 76 77 80 72 71 71 71 73 74 74 76 72 71 68 66 66 68 68 67 58 60 55 50 47 41 37 33 30 27 24 21 19 16 13 9 8 3 0 357 354
76 79 78 80 80 75 82 80 73 72 74 76 74 73 73 70 68 68 70 67 65 61 55 54 49 45 40 35 31 29 26 23 20 17 16 14 12 9 6 3 1 359 356
79 87 85 82 82 75 77 90 86 77 76 72 70 71 72 72 70 71 69 66 63 57 56 50 45 40 36 31 28 25 22 21 19 18 16 13 10 7 5 3 2 359 358
91 94 87 85 80 80 81 82 80 77 78 79 73 72 73 73 70 69 63 63 60 55 51 46 41 36 32 28 24 22 20 18 17 14 13 11 9 6 4 3 1 360 359
96 98 101 88 79 92 85 85 82 80 78 78 75 75 75 74 69 63 56 58 54 50 44 40 35 31 27 24 21 18 16 15 13 11 9 8 6 4 3 1 1 0 0
133 114 105 92 98 95 92 89 84 83 84 84 79 70 73 70 64 57 54 51 47 42 36 32 28 24 21 18 15 13 12 11 9 7 6 4 3 2 1 360 360 359 360
152 151 161 124 114 107 102 93 89 90 91 89 92 68 68 60 54 50 47 43 38 33 28 23 20 17 15 13 11 9 8 6 5 3 2 1 0 359 358 358 359 359 358
202 200 170 158 147 125 134 113 104 104 100 91 83 72 51 46 41 39 35 30 25 21 17 15 13 11 8 7 5 4 4 2 0 359 359 358 358 357 357 357 357 358 357
218 213 198 193 198 189 183 160 142 133 124 103 61 35 28 25 21 16 14 10 8 7 6 5 4 3 2 1 0 1 359 358 356 355 355 355 355 355 355 356 356 357 357
243 223 222 216 212 216 225 220 204 201 218 253 306 332 348 354 355 353 350 349 349 351 352 353 354 355 355 355 355 355 355 355 354 353 353 353 353 354 354 355 355 356 357
238 236 232 236 235 236 235 241 243 247 254 264 276 288 302 315 325 331 332 333 335 337 340 343 345 347 349 350 350 350 350 351 352 352 351 351 352 353 353 354 354 355 357
242 239 242 242 245 243 245 249 251 255 261 266 273 281 290 298 307 314 319 323 325 327 331 334 337 340 342 344 345 346 347 348 348 349 349 350 350 351 352 353 354 355 356